| time (UTC) | temp F | wind direction | speed MPH | gust MPH | rain 1hr in | rain 24hr in | rain mn in | humidity % | barometer mb |
| 20260505021934 | 59 | 49 | 1.0 | 4.0 | 0.00 | 0.00 | 0.00 | 85 | 1014.2 |
| 20260505021431 | 59 | 38 | 1.0 | 5.0 | 0.00 | 0.00 | 0.00 | 85 | 1014.3 |
| 20260505020940 | 59 | 49 | 0.0 | 3.0 | 0.00 | 0.00 | 0.00 | 85 | 1014.4 |
| 20260505020456 | 59 | 41 | 0.0 | 2.0 | 0.00 | 0.00 | 0.00 | 85 | 1014.4 |
| 20260505015945 | 59 | 36 | 0.0 | 2.0 | 0.00 | 0.00 | 0.00 | 85 | 1014.5 |
| 20260505015442 | 59 | 36 | 0.0 | 4.0 | 0.00 | 0.00 | 0.00 | 85 | 1014.5 |
| 20260505014952 | 58 | 34 | 1.0 | 5.0 | 0.00 | 0.00 | 0.00 | 85 | 1014.5 |
| 20260505014507 | 58 | 32 | 0.0 | 4.0 | 0.00 | 0.00 | 0.00 | 85 | 1014.6 |
| 20260505014016 | 58 | 32 | 1.0 | 4.0 | 0.00 | 0.00 | 0.00 | 85 | 1014.6 |
| 20260505013445 | 58 | 32 | 1.0 | 3.0 | 0.00 | 0.00 | 0.00 | 84 | 1014.6 |
| 20260505012937 | 58 | 32 | 0.0 | 4.0 | 0.00 | 0.00 | 0.00 | 84 | 1014.6 |
| 20260505012452 | 58 | 18 | 1.0 | 4.0 | 0.00 | 0.00 | 0.00 | 84 | 1014.7 |
| 20260505011951 | 58 | 23 | 1.0 | 3.0 | 0.00 | 0.00 | 0.00 | 84 | 1014.7 |
| 20260505011438 | 58 | 26 | 1.0 | 3.0 | 0.00 | 0.00 | 0.00 | 83 | 1014.7 |
| 20260505010953 | 59 | 31 | 0.0 | 4.0 | 0.00 | 0.00 | 0.00 | 83 | 1014.6 |
| 20260505010446 | 59 | 32 | 1.0 | 4.0 | 0.00 | 0.00 | 0.00 | 82 | 1014.7 |
| 20260505010017 | 59 | 36 | 1.0 | 4.0 | 0.00 | 0.00 | 0.00 | 82 | 1014.8 |
| 20260505005444 | 59 | 28 | 0.0 | 3.0 | 0.00 | 0.00 | 0.00 | 81 | 1014.8 |
| 20260505004936 | 59 | 49 | 1.0 | 3.0 | 0.00 | 0.00 | 0.00 | 80 | 1015.0 |
| 20260505004444 | 59 | 51 | 1.0 | 2.0 | 0.00 | 0.00 | 0.00 | 79 | 1015.1 |
| 20260505003936 | 59 | 52 | 0.0 | 2.0 | 0.00 | 0.00 | 0.00 | 79 | 1015.2 |
| 20260505003451 | 59 | 53 | 1.0 | 2.0 | 0.00 | 0.00 | 0.00 | 78 | 1015.3 |
| 20260505002937 | 59 | 54 | 0.0 | 2.0 | 0.00 | 0.00 | 0.00 | 79 | 1015.4 |
| 20260505002434 | 59 | 54 | 0.0 | 1.0 | 0.00 | 0.00 | 0.00 | 78 | 1015.4 |
| 20260505001938 | 59 | 54 | 0.0 | 2.0 | 0.00 | 0.00 | 0.00 | 78 | 1015.4 |
| 20260505001434 | 59 | 54 | 0.0 | 2.0 | 0.00 | 0.00 | 0.00 | 78 | 1015.4 |
| 20260505000948 | 59 | 54 | 0.0 | 2.0 | 0.00 | 0.00 | 0.00 | 78 | 1015.4 |
| 20260505000435 | 59 | 54 | 0.0 | 2.0 | 0.00 | 0.00 | 0.00 | 77 | 1015.5 |
| 20260504235948 | 59 | 51 | 0.0 | 2.0 | 0.00 | 0.00 | 0.00 | 77 | 1015.5 |
| 20260504235446 | 59 | 51 | 0.0 | 2.0 | 0.00 | 0.00 | 0.00 | 76 | 1015.5 |
| 20260504234931 | 60 | 51 | 0.0 | 1.0 | 0.00 | 0.00 | 0.00 | 76 | 1015.5 |
| 20260504234446 | 60 | 51 | 0.0 | 0.0 | 0.00 | 0.00 | 0.00 | 76 | 1015.6 |
| 20260504233934 | 60 | 51 | 0.0 | 0.0 | 0.00 | 0.00 | 0.00 | 75 | 1015.7 |
| 20260504233430 | 60 | 52 | 0.0 | 2.0 | 0.00 | 0.00 | 0.00 | 75 | 1015.8 |
| 20260504233002 | 60 | 51 | 0.0 | 2.0 | 0.00 | 0.00 | 0.00 | 75 | 1015.8 |
| 20260504232431 | 60 | 51 | 0.0 | 2.0 | 0.00 | 0.00 | 0.00 | 75 | 1015.9 |
| 20260504231945 | 60 | 49 | 0.0 | 2.0 | 0.00 | 0.00 | 0.00 | 75 | 1015.9 |
| 20260504231500 | 60 | 49 | 1.0 | 2.0 | 0.00 | 0.00 | 0.00 | 74 | 1015.9 |
| 20260504230956 | 60 | 49 | 0.0 | 2.0 | 0.00 | 0.00 | 0.00 | 74 | 1015.9 |
| 20260504230445 | 60 | 49 | 0.0 | 1.0 | 0.00 | 0.00 | 0.00 | 74 | 1016.0 |
| 20260504225940 | 60 | 49 | 0.0 | 3.0 | 0.00 | 0.00 | 0.00 | 73 | 1016.0 |
| 20260504225456 | 60 | 49 | 1.0 | 3.0 | 0.00 | 0.00 | 0.00 | 73 | 1016.0 |
| 20260504224950 | 60 | 49 | 0.0 | 5.0 | 0.00 | 0.00 | 0.00 | 73 | 1016.0 |
| 20260504224437 | 60 | 47 | 1.0 | 5.0 | 0.00 | 0.00 | 0.00 | 72 | 1016.0 |
| 20260504223952 | 61 | 46 | 3.0 | 4.0 | 0.00 | 0.00 | 0.00 | 72 | 1016.0 |
| 20260504223440 | 61 | 34 | 1.0 | 3.0 | 0.00 | 0.00 | 0.00 | 72 | 1016.1 |
| 20260504222935 | 61 | 31 | 0.0 | 3.0 | 0.00 | 0.00 | 0.00 | 71 | 1016.2 |
| 20260504222442 | 61 | 31 | 1.0 | 3.0 | 0.00 | 0.00 | 0.00 | 71 | 1016.2 |
| 20260504221938 | 61 | 28 | 1.0 | 3.0 | 0.00 | 0.00 | 0.00 | 71 | 1016.2 |
| 20260504221435 | 61 | 28 | 1.0 | 2.0 | 0.00 | 0.00 | 0.00 | 71 | 1016.3 |
| 20260504220943 | 61 | 28 | 1.0 | 3.0 | 0.00 | 0.00 | 0.00 | 70 | 1016.3 |
| 20260504220439 | 61 | 28 | 0.0 | 2.0 | 0.00 | 0.00 | 0.00 | 70 | 1016.3 |
| 20260504215934 | 62 | 28 | 0.0 | 2.0 | 0.00 | 0.00 | 0.00 | 69 | 1016.2 |
| 20260504215447 | 62 | 28 | 1.0 | 2.0 | 0.00 | 0.00 | 0.00 | 69 | 1016.3 |
| 20260504214936 | 62 | 28 | 0.0 | 2.0 | 0.00 | 0.00 | 0.00 | 68 | 1016.2 |
| 20260504214449 | 62 | 28 | 0.0 | 3.0 | 0.00 | 0.00 | 0.00 | 68 | 1016.3 |
| 20260504213943 | 62 | 28 | 0.0 | 3.0 | 0.00 | 0.00 | 0.00 | 68 | 1016.3 |
| 20260504213431 | 63 | 30 | 0.0 | 2.0 | 0.00 | 0.00 | 0.00 | 67 | 1016.3 |
| 20260504213007 | 63 | 31 | 0.0 | 3.0 | 0.00 | 0.00 | 0.00 | 66 | 1016.4 |
| 20260504212442 | 63 | 32 | 1.0 | 3.0 | 0.00 | 0.00 | 0.00 | 65 | 1016.4 |
| 20260504211931 | 64 | 32 | 0.0 | 5.0 | 0.00 | 0.00 | 0.00 | 65 | 1016.5 |
| 20260504211445 | 64 | 32 | 0.0 | 5.0 | 0.00 | 0.00 | 0.00 | 63 | 1016.4 |
| 20260504210933 | 65 | 22 | 1.0 | 3.0 | 0.00 | 0.00 | 0.00 | 62 | 1016.4 |
| 20260504210429 | 65 | 159 | 1.0 | 2.0 | 0.00 | 0.00 | 0.00 | 61 | 1016.4 |
| 20260504205946 | 66 | 160 | 1.0 | 2.0 | 0.00 | 0.00 | 0.00 | 61 | 1016.3 |
| 20260504205433 | 66 | 161 | 0.0 | 0.0 | 0.00 | 0.00 | 0.00 | 59 | 1016.2 |
| 20260504205008 | 66 | 161 | 0.0 | 0.0 | 0.00 | 0.00 | 0.00 | 59 | 1016.2 |
| 20260504204442 | 66 | 161 | 0.0 | 0.0 | 0.00 | 0.00 | 0.00 | 59 | 1016.2 |
| 20260504203932 | 66 | 161 | 0.0 | 1.0 | 0.00 | 0.00 | 0.00 | 59 | 1016.1 |
| 20260504203447 | 67 | 161 | 0.0 | 1.0 | 0.00 | 0.00 | 0.00 | 58 | 1016.1 |
| 20260504202942 | 67 | 161 | 0.0 | 1.0 | 0.00 | 0.00 | 0.00 | 58 | 1016.1 |
| 20260504202431 | 67 | 161 | 0.0 | 1.0 | 0.00 | 0.00 | 0.00 | 58 | 1016.1 |
| 20260504201946 | 67 | 161 | 0.0 | 0.0 | 0.00 | 0.00 | 0.00 | 57 | 1016.1 |
| 20260504201434 | 67 | 161 | 0.0 | 0.0 | 0.00 | 0.00 | 0.00 | 57 | 1016.1 |
| 20260504200948 | 67 | 161 | 0.0 | 0.0 | 0.00 | 0.00 | 0.00 | 56 | 1016.0 |
| 20260504200505 | 68 | 161 | 0.0 | 2.0 | 0.00 | 0.00 | 0.00 | 57 | 1016.0 |
| 20260504195931 | 68 | 161 | 0.0 | 3.0 | 0.00 | 0.00 | 0.00 | 57 | 1015.9 |
| 20260504195450 | 68 | 161 | 1.0 | 3.0 | 0.00 | 0.00 | 0.00 | 57 | 1015.9 |
| 20260504194938 | 68 | 162 | 0.0 | 5.0 | 0.00 | 0.00 | 0.00 | 56 | 1015.9 |
| 20260504194453 | 68 | 169 | 2.0 | 7.0 | 0.00 | 0.00 | 0.00 | 56 | 1015.9 |
| 20260504193942 | 68 | 183 | 2.0 | 7.0 | 0.00 | 0.00 | 0.00 | 56 | 1015.8 |
| 20260504193437 | 68 | 198 | 2.0 | 6.0 | 0.00 | 0.00 | 0.00 | 56 | 1015.8 |
| 20260504193013 | 69 | 173 | 2.0 | 9.0 | 0.00 | 0.00 | 0.00 | 55 | 1015.8 |
| 20260504192440 | 69 | 153 | 2.0 | 10.0 | 0.00 | 0.00 | 0.00 | 55 | 1015.8 |
| 20260504191936 | 69 | 178 | 2.0 | 8.0 | 0.00 | 0.00 | 0.00 | 55 | 1015.8 |
| 20260504191444 | 69 | 195 | 3.0 | 8.0 | 0.00 | 0.00 | 0.00 | 55 | 1015.8 |
| 20260504190940 | 69 | 175 | 1.0 | 7.0 | 0.00 | 0.00 | 0.00 | 55 | 1015.7 |
| 20260504190455 | 70 | 134 | 2.0 | 6.0 | 0.00 | 0.00 | 0.00 | 54 | 1015.6 |
| 20260504185944 | 70 | 164 | 1.0 | 6.0 | 0.00 | 0.00 | 0.00 | 54 | 1015.6 |
| 20260504185441 | 70 | 127 | 4.0 | 6.0 | 0.00 | 0.00 | 0.00 | 53 | 1015.6 |
| 20260504185015 | 70 | 167 | 3.0 | 8.0 | 0.00 | 0.00 | 0.00 | 53 | 1015.5 |
| 20260504184447 | 71 | 146 | 2.0 | 9.0 | 0.00 | 0.00 | 0.00 | 52 | 1015.5 |
| 20260504183937 | 71 | 201 | 4.0 | 11.0 | 0.00 | 0.00 | 0.00 | 51 | 1015.4 |
| 20260504183452 | 71 | 140 | 3.0 | 11.0 | 0.00 | 0.00 | 0.00 | 51 | 1015.4 |
| 20260504182943 | 72 | 184 | 5.0 | 14.0 | 0.00 | 0.00 | 0.00 | 50 | 1015.4 |
| 20260504182459 | 72 | 142 | 5.0 | 14.0 | 0.00 | 0.00 | 0.00 | 49 | 1015.4 |
| 20260504181953 | 73 | 186 | 5.0 | 15.0 | 0.00 | 0.00 | 0.00 | 48 | 1015.4 |
| 20260504181443 | 74 | 171 | 5.0 | 15.0 | 0.00 | 0.00 | 0.00 | 48 | 1015.3 |
| 20260504180934 | 75 | 171 | 5.0 | 10.0 | 0.00 | 0.00 | 0.00 | 46 | 1015.3 |
| 20260504180451 | 75 | 187 | 5.0 | 10.0 | 0.00 | 0.00 | 0.00 | 39 | 1015.2 |
| 20260504175947 | 76 | 168 | 3.0 | 8.0 | 0.00 | 0.00 | 0.00 | 39 | 1015.2 |
| 20260504175436 | 76 | 136 | 2.0 | 8.0 | 0.00 | 0.00 | 0.00 | 39 | 1015.0 |
| 20260504174953 | 76 | 173 | 3.0 | 9.0 | 0.00 | 0.00 | 0.00 | 39 | 1015.0 |
| 20260504174445 | 76 | 182 | 4.0 | 9.0 | 0.00 | 0.00 | 0.00 | 39 | 1015.0 |
| 20260504173936 | 77 | 190 | 5.0 | 9.0 | 0.00 | 0.00 | 0.00 | 38 | 1015.0 |
| 20260504173447 | 77 | 195 | 5.0 | 9.0 | 0.00 | 0.00 | 0.00 | 39 | 1015.0 |
| 20260504173001 | 78 | 173 | 3.0 | 9.0 | 0.00 | 0.00 | 0.00 | 39 | 1014.9 |
| 20260504172456 | 78 | 213 | 1.0 | 5.0 | 0.00 | 0.00 | 0.00 | 38 | 1014.9 |
| 20260504171945 | 78 | 236 | 2.0 | 5.0 | 0.00 | 0.00 | 0.00 | 40 | 1015.0 |
| 20260504171441 | 78 | 234 | 3.0 | 4.0 | 0.00 | 0.00 | 0.00 | 40 | 1014.9 |
| 20260504170950 | 77 | 94 | 0.0 | 3.0 | 0.00 | 0.00 | 0.00 | 42 | 1015.0 |
| 20260504170505 | 77 | 94 | 1.0 | 7.0 | 0.00 | 0.00 | 0.00 | 42 | 1014.9 |
| 20260504160433 | 78 | 78 | 3.0 | 8.0 | 0.00 | 0.00 | 0.00 | 44 | 1015.2 |
| 20260504150940 | 80 | 166 | 6.0 | 10.0 | 0.00 | 0.00 | 0.00 | 43 | 1015.4 |
| 20260504150449 | 81 | 157 | 4.0 | 10.0 | 0.00 | 0.00 | 0.00 | 43 | 1015.3 |
| 20260504140954 | 80 | 98 | 2.0 | 8.0 | 0.00 | 0.00 | 0.00 | 42 | 1015.8 |
| 20260504140452 | 80 | 129 | 2.0 | 8.0 | 0.00 | 0.00 | 0.00 | 42 | 1015.8 |
| 20260504130448 | 82 | 223 | 2.0 | 6.0 | 0.00 | 0.00 | 0.00 | 38 | 1016.3 |
| 20260504110454 | 77 | 68 | 0.0 | 3.0 | 0.00 | 0.00 | 0.00 | 46 | 1017.4 |
| 20260504100516 | 74 | 237 | 1.0 | 4.0 | 0.00 | 0.00 | 0.00 | 49 | 1018.0 |
| 20260504081954 | 69 | 57 | 2.0 | 4.0 | 0.00 | 0.00 | 0.00 | 59 | 1018.2 |
| 20260504081441 | 69 | 44 | 0.0 | 4.0 | 0.00 | 0.00 | 0.00 | 58 | 1018.2 |
| 20260504080932 | 69 | 43 | 1.0 | 4.0 | 0.00 | 0.00 | 0.00 | 59 | 1018.3 |
| 20260504080447 | 69 | 34 | 2.0 | 4.0 | 0.00 | 0.00 | 0.00 | 58 | 1018.3 |
| 20260504050450 | 57 | 46 | 0.0 | 0.0 | 0.00 | 0.00 | 0.00 | 78 | 1017.4 |
| 20260504045940 | 57 | 46 | 0.0 | 0.0 | 0.00 | 0.00 | 0.00 | 78 | 1017.4 |
| 20260504045437 | 57 | 46 | 0.0 | 1.0 | 0.00 | 0.00 | 0.00 | 79 | 1017.4 |
| 20260504044947 | 57 | 46 | 0.0 | 2.0 | 0.00 | 0.00 | 0.00 | 79 | 1017.4 |
| 20260504044443 | 57 | 49 | 1.0 | 2.0 | 0.00 | 0.00 | 0.00 | 79 | 1017.3 |
| 20260504043931 | 56 | 49 | 0.0 | 2.0 | 0.00 | 0.00 | 0.00 | 80 | 1017.4 |
| 20260504043446 | 56 | 49 | 0.0 | 2.0 | 0.00 | 0.00 | 0.00 | 80 | 1017.3 |
| 20260504042933 | 56 | 49 | 0.0 | 0.0 | 0.00 | 0.00 | 0.00 | 80 | 1017.3 |
| 20260504042429 | 56 | 49 | 0.0 | 0.0 | 0.00 | 0.00 | 0.00 | 80 | 1017.2 |
| 20260504041946 | 56 | 49 | 0.0 | 0.0 | 0.00 | 0.00 | 0.00 | 80 | 1017.2 |
| 20260504041434 | 56 | 49 | 0.0 | 0.0 | 0.00 | 0.00 | 0.00 | 80 | 1017.2 |
| 20260504040930 | 56 | 49 | 0.0 | 0.0 | 0.00 | 0.00 | 0.00 | 80 | 1017.1 |
| 20260504040439 | 56 | 49 | 0.0 | 0.0 | 0.00 | 0.00 | 0.00 | 80 | 1017.0 |
| 20260504035936 | 56 | 49 | 0.0 | 0.0 | 0.00 | 0.00 | 0.00 | 81 | 1017.0 |
| 20260504035451 | 56 | 49 | 0.0 | 0.0 | 0.00 | 0.00 | 0.00 | 81 | 1017.0 |
| 20260504034938 | 56 | 49 | 0.0 | 0.0 | 0.00 | 0.00 | 0.00 | 81 | 1017.0 |
| 20260504034434 | 56 | 49 | 0.0 | 0.0 | 0.00 | 0.00 | 0.00 | 80 | 1017.0 |
| 20260504033943 | 56 | 49 | 0.0 | 0.0 | 0.00 | 0.00 | 0.00 | 80 | 1017.0 |
| 20260504033441 | 56 | 49 | 0.0 | 0.0 | 0.00 | 0.00 | 0.00 | 80 | 1017.0 |
| 20260504032930 | 57 | 49 | 0.0 | 2.0 | 0.00 | 0.00 | 0.00 | 80 | 1017.0 |
| 20260504032445 | 57 | 49 | 1.0 | 1.0 | 0.00 | 0.00 | 0.00 | 79 | 1017.0 |
| 20260504032002 | 57 | 49 | 0.0 | 0.0 | 0.00 | 0.00 | 0.00 | 79 | 1017.1 |
| 20260504031429 | 57 | 49 | 0.0 | 0.0 | 0.00 | 0.00 | 0.00 | 79 | 1017.0 |
| 20260504031005 | 57 | 49 | 0.0 | 0.0 | 0.00 | 0.00 | 0.00 | 78 | 1017.0 |
| 20260504030440 | 58 | 49 | 0.0 | 0.0 | 0.00 | 0.00 | 0.00 | 78 | 1017.0 |
| 20260504025931 | 58 | 49 | 0.0 | 0.0 | 0.00 | 0.00 | 0.00 | 78 | 1017.0 |
| 20260504025442 | 58 | 49 | 0.0 | 0.0 | 0.00 | 0.00 | 0.00 | 78 | 1017.1 |
| 20260504024938 | 58 | 49 | 0.0 | 0.0 | 0.00 | 0.00 | 0.00 | 78 | 1017.1 |
| 20260504024453 | 58 | 49 | 0.0 | 0.0 | 0.00 | 0.00 | 0.00 | 78 | 1017.1 |
| 20260504024000 | 58 | 49 | 0.0 | 0.0 | 0.00 | 0.00 | 0.00 | 78 | 1017.2 |
| 20260504023457 | 58 | 49 | 0.0 | 0.0 | 0.00 | 0.00 | 0.00 | 78 | 1017.2 |
| 20260504022932 | 58 | 49 | 0.0 | 0.0 | 0.00 | 0.00 | 0.00 | 78 | 1017.2 |
| 20260504022450 | 58 | 49 | 0.0 | 0.0 | 0.00 | 0.00 | 0.00 | 78 | 1017.2 |